Hourly Data Report for July 04, 2021

FISHER BRANCH (AUT)
MANITOBA
Current Station Operator: ECCC - MSC

51°05'00.100" N
97°33'16.200" W
253.00 m
50309J6
71442
WSZ

Download Data

Hourly Data (July 2021)
Hourly Data Report for July 4, 2021
TIME
LST
Temp Definition
°C
Dew Point Definition
°C
Rel Hum Definition
%
Precip. Amount Definition
mm

Wind Dir Definition
10's deg

Wind Spd Definition
km/h
Visibility Definition
km
Stn Press Definition
kPa
Hmdx Definition


Wind Chill Definition


Weather Definition


00:00 24.3 17.6 66 0.0 18 14   97.42 30   LegendNANA
01:00 22.8 18.0 74 0.0 20 10   97.41 29   LegendNANA
02:00 22.5 18.1 76 0.0 20 11   97.38 29   LegendNANA
03:00 22.1 18.3 79 0.0 21 6   97.39 28   LegendNANA
04:00 20.7 18.1 85 0.0 29 3   97.36 27   LegendNANA
05:00 20.3 18.8 91 0.0 16 4   97.37 27   LegendNANA
06:00 21.2 19.1 87 0.0 14 9   97.31 28   LegendNANA
07:00 21.9 19.0 84 0.0 28 8   97.42 29   LegendNANA
08:00 25.7 17.9 62 0.0 33 13   97.43 32   LegendNANA
09:00 27.2 17.2 54 0.0 34 13   97.48 33   LegendNANA
10:00 28.9 17.7 51 0.0 32 7   97.48 35   LegendNANA
11:00 29.4 17.1 48 0.0 29 13   97.48 35   LegendNANA
12:00 29.7 15.3 42 0.0 29 20   97.52 34   LegendNANA
13:00 30.8 16.5 42 0.0 31 19   97.54 36   LegendNANA
14:00 30.9 15.2 39 0.0 29 18   97.56 35   LegendNANA
15:00 31.8 14.8 36 0.0 31 23   97.59 36   LegendNANA
16:00 30.5 12.9 34 0.0 29 25   97.64 33   LegendNANA
17:00 30.1 11.7 32 0.0 30 23   97.66 32   LegendNANA
18:00 29.8 11.8 33 0.0 31 14   97.71 32   LegendNANA
19:00 27.7 18.5 57 0.0 4 10   97.77 34   LegendNANA
20:00 26.3 17.2 58 0.0 36 14   97.85 32   LegendNANA
21:00 23.7 17.5 68 0.0 36 6   97.93 29   LegendNANA
22:00 21.4 17.1 76 0.0 34 6   97.98 27   LegendNANA
23:00 19.8 16.9 84 0.0 36 6   98.02     LegendNANA

Notes on Data Quality.

Legend

  • E = Estimated
  • M = Missing
  • NA = Not Available*
  • [empty] = Indicates an unobserved value
Date modified: